Location: Unspecified
(44.4377°N, 88.0525°W)
Time: 13:46:16
(UTC-05:00)

Okean 3 - Visible Passes

Search period start: 25 May 2016 00:00
Search period end: 04 June 2016 00:00
Orbit: 577 x 605 km, 82.5° (Epoch: 25 May)

Date Brightness Start Highest point End Pass type
(mag) Time Alt. Az. Time Alt. Az. Time Alt. Az.
25 May 6.8 04:33:39 10° NE 04:35:45 13° ENE 04:37:51 10° E visible
31 May 6.6 03:47:34 10° NE 03:49:43 14° ENE 03:51:51 10° E visible
01 Jun 6.3 03:55:19 10° NNE 03:58:25 19° ENE 04:01:30 10° ESE visible
02 Jun 5.7 04:03:25 10° NNE 04:07:05 28° ENE 04:10:45 10° SE visible
03 Jun 4.9 04:11:40 10° N 04:15:42 41° ENE 04:19:43 10° SSE visible
